METAR UND TAF INFORMATION
KSDF 252043Z 02012KT 10SM OVC016 09/06 A3005 RMK AO2 DZE34 P0000 T00940056 $

 FLUGHAFENKARTE

 RUNWAY INFORMATION
Runway 11 Runway length 7250 ft Runway width 150 ft
Runway elevation 477 ft Runway displaced threshold 0 ft Runway heading 111
Runway 29 Runway length 7250 ft Runway width 150 ft
Runway elevation 480 ft Runway displaced threshold 0 ft Runway heading 291
Runway 17L Runway length 8579 ft Runway width 150 ft
Runway elevation 499 ft Runway displaced threshold 329 ft Runway heading 165
Runway 35R Runway length 8579 ft Runway width 150 ft
Runway elevation 472 ft Runway displaced threshold 450 ft Runway heading 345
Runway 17R Runway length 10850 ft Runway width 150 ft
Runway elevation 486 ft Runway displaced threshold 850 ft Runway heading 165
Runway 35L Runway length 10850 ft Runway width 150 ft
Runway elevation 461 ft Runway displaced threshold 0 ft Runway heading 345

 AIRPORT FREQUENCIES
Type APP Name APP Frequency 123.675 MHZ
Type ATIS Name ATIS Frequency 118.725 MHZ
Type CLD Name CLNC DEL Frequency 126.1 MHZ
Type DEP Name DEP Frequency 123.675 MHZ
Type GND Name GND Frequency 121.7 MHZ
Type OPS Name ANG OPS Frequency 26.81 MHZ
Type TWR Name TWR Frequency 124.2 MHZ
Type UNIC Name UNICOM Frequency 122.95 MHZ

 AIRPORT NEAR NAVIGATION AIDS